Weather History for Joplin, MO

Change the Weather History Date:

Monday, September 9, 2013

  Actual Average Record
Temperature  
Mean Temperature 83 °F 74 °F  
Max Temperature 94 °F 85 °F 100 °F (1947)
Min Temperature 71 °F 62 °F 49 °F (2004)
Degree Days  
Heating Degree Days 0 0  
Month to date heating degree days 0 0  
Since 1 July heating degree days 0 1  
Cooling Degree Days 18 9  
Month to date cooling degree days 119 93  
Year to date cooling degree days 1383 1520  
Growing Degree Days 32 (Base 50)    
Moisture  
Dew Point 63 °F    
Average Humidity 54    
Maximum Humidity 74    
Minimum Humidity 33    
Precipitation  
Precipitation 0.00 in 0.17 in 2.96 in (1930)
Month to date precipitation T 1.43  
Year to date precipitation 35.46 32.40  
Snow  
Snow 0.00 in - - ()
Month to date snowfall 0.0  
Snow Depth 0.00 in    
Sea Level Pressure  
Sea Level Pressure 29.94 in    
Wind  
Wind Speed 8 mph (South)    
Max Wind Speed 18 mph    
Max Gust Speed 23 mph    
Visibility 10 miles    
Events      
T = Trace of Precipitation, MM = Missing Value Source: NWS Daily Summary

Daily Weather History Graph

Daily Weather History Graph

Search for Another Location

Airport:

Trip Planner

Search our weather history database for the weather conditions in past years. The results will help you decide how hot, cold, wet, or windy it might be!

Date:

Astronomy

Sep. 09, 2013 Rise Set
Actual Time 6:55 AM CDT 7:34 PM CDT
Civil Twilight 6:29 AM CDT 8:00 PM CDT
Nautical Twilight 5:58 AM CDT 8:31 PM CDT
Astronomical Twilight 5:26 AM CDT 9:03 PM CDT
Moon 11:10 AM CDT (9/9) 9:58 PM CDT (9/9)
Length of Visible Light 13h 31m
Length of Day
12h 38m
Waxing Crescent, 19% of the Moon is Illuminated
Sep 9
Waxing Crescent
Sep 12
First Quarter
Sep 19
Full
Sep 26
Last Quarter
Oct 4
New

Hourly Weather History & Observations

Time (CDT) Temp. Heat Index Dew Point Humidity Pressure Visibility Wind Dir Wind Speed Gust Speed Precip Events Conditions
12:53 AM 75.9 °F - 66.0 °F 71% 29.90 in 10.0 mi SSE 8.1 mph - N/A   Clear
1:53 AM 75.9 °F - 64.9 °F 69% 29.90 in 10.0 mi South 8.1 mph - N/A   Clear
2:53 AM 75.0 °F - 64.0 °F 69% 29.90 in 10.0 mi South 8.1 mph - N/A   Clear
3:53 AM 75.0 °F - 64.0 °F 69% 29.91 in 10.0 mi South 6.9 mph - N/A   Clear
4:53 AM 73.0 °F - 63.0 °F 71% 29.91 in 10.0 mi South 6.9 mph - N/A   Clear
5:53 AM 72.0 °F - 63.0 °F 73% 29.93 in 10.0 mi South 6.9 mph - N/A   Clear
6:53 AM 71.1 °F - 62.1 °F 73% 29.94 in 10.0 mi South 5.8 mph - N/A   Clear
7:53 AM 73.0 °F - 63.0 °F 71% 29.96 in 10.0 mi South 4.6 mph - N/A   Clear
8:53 AM 80.1 °F 81.7 °F 64.0 °F 58% 29.96 in 10.0 mi SSW 6.9 mph - N/A   Clear
9:53 AM 84.0 °F 84.5 °F 62.1 °F 47% 29.98 in 10.0 mi SSW 11.5 mph - N/A   Clear
10:53 AM 88.0 °F 89.3 °F 64.0 °F 45% 29.99 in 10.0 mi SSW 9.2 mph - N/A   Clear
11:53 AM 90.0 °F 91.3 °F 64.0 °F 42% 29.99 in 10.0 mi SSW 11.5 mph - N/A   Clear
12:53 PM 91.9 °F 92.5 °F 62.1 °F 37% 29.97 in 10.0 mi SSW 15.0 mph - N/A   Clear
1:53 PM 93.0 °F 92.7 °F 60.1 °F 33% 29.96 in 10.0 mi SSW 15.0 mph 23.0 mph N/A   Clear
2:53 PM 93.9 °F 94.0 °F 61.0 °F 33% 29.94 in 10.0 mi SW 17.3 mph 23.0 mph N/A   Clear
3:53 PM 93.9 °F 94.8 °F 62.1 °F 35% 29.93 in 10.0 mi SW 15.0 mph 19.6 mph N/A   Clear
4:53 PM 93.0 °F 94.2 °F 63.0 °F 37% 29.92 in 10.0 mi SSW 10.4 mph - N/A   Clear
5:53 PM 91.9 °F 91.8 °F 61.0 °F 35% 29.91 in 10.0 mi SSW 11.5 mph - N/A   Partly Cloudy
6:53 PM 89.1 °F 89.3 °F 62.1 °F 40% 29.91 in 10.0 mi SSW 4.6 mph - N/A   Clear
7:53 PM 82.0 °F 83.4 °F 64.0 °F 54% 29.92 in 10.0 mi South 3.5 mph - N/A   Clear
8:53 PM 80.1 °F 81.7 °F 64.0 °F 58% 29.93 in 10.0 mi SE 4.6 mph - N/A   Clear
9:53 PM 75.9 °F - 64.9 °F 69% 29.95 in 10.0 mi Calm Calm - N/A   Clear
10:53 PM 77.0 °F - 64.0 °F 64% 29.96 in 10.0 mi SSE 4.6 mph - N/A   Clear
11:53 PM 75.0 °F - 63.0 °F 66% 29.97 in 10.0 mi SSE 6.9 mph - N/A   Clear